This is the latest recevied weather packets stored in our database for station/object IZ1UQG-N2. If no packets are shown the sender has not sent any weather packets the latest 1 day(s).
| Time | Temp. | Humidity | Pressure | Rain* | Wind** | Luminosity | Snow |
|---|---|---|---|---|---|---|---|
| 1777986727 | 12.22° C | 89% | 1012.1 hPa | 0.25 mm | 0.89 m/s, 358° | 76 W/m² | - |
| 1777986709 | 12.22° C | 89% | 1012.1 hPa | 0.25 mm | 0.89 m/s, 4° | 74 W/m² | - |
| 1777986649 | 12.22° C | 89% | 1012.1 hPa | 0.25 mm | 0.89 m/s, 6° | 72 W/m² | - |
| 1777986589 | 12.22° C | 89% | 1012.2 hPa | 0.25 mm | 0.89 m/s, 6° | 70 W/m² | - |
| 1777986548 | 12.22° C | 89% | 1012.2 hPa | 0.25 mm | 0.89 m/s, 6° | 70 W/m² | - |
| 1777986530 | 12.22° C | 89% | 1012.2 hPa | 0 mm | 0.89 m/s, 9° | 63 W/m² | - |
| 1777986470 | 12.22° C | 89% | 1012.2 hPa | 0 mm | 0.89 m/s, 7° | 62 W/m² | - |
| 1777986410 | 12.22° C | 89% | 1012.2 hPa | 0 mm | 0.89 m/s, 7° | 63 W/m² | - |
| 1777986367 | 12.22° C | 89% | 1012.2 hPa | 0 mm | 0.89 m/s, 7° | 63 W/m² | - |
| 1777986349 | 12.22° C | 89% | 1012.2 hPa | 0 mm | 0.89 m/s, 8° | 65 W/m² | - |
| 1777986289 | 12.22° C | 89% | 1012.1 hPa | 0 mm | 0.89 m/s, 8° | 69 W/m² | - |
| 1777986230 | 12.22° C | 89% | 1012.1 hPa | 0 mm | 0.89 m/s, 9° | 72 W/m² | - |
| 1777986188 | 12.22° C | 89% | 1012.1 hPa | 0 mm | 0.89 m/s, 9° | 72 W/m² | - |
| 1777986170 | 12.22° C | 89% | 1012.1 hPa | 0 mm | 0.89 m/s, 9° | 79 W/m² | - |
| 1777986110 | 12.22° C | 89% | 1012.2 hPa | 0 mm | 0.89 m/s, 6° | 81 W/m² | - |
| 1777986050 | 12.22° C | 89% | 1012.2 hPa | 0 mm | 0.89 m/s, 5° | 84 W/m² | - |
| 1777986008 | 12.22° C | 89% | 1012.2 hPa | 0 mm | 0.89 m/s, 5° | 84 W/m² | - |
| 1777985989 | 12.22° C | 89% | 1012.1 hPa | 0 mm | 0.89 m/s, 5° | 86 W/m² | - |
| 1777985929 | 12.22° C | 89% | 1012.2 hPa | 0 mm | 0.45 m/s, 3° | 88 W/m² | - |
| 1777985869 | 12.22° C | 89% | 1012.2 hPa | 0 mm | 0.45 m/s, 3° | 88 W/m² | - |
| 1777985829 | 12.22° C | 89% | 1012.2 hPa | 0 mm | 0.45 m/s, 3° | 88 W/m² | - |
| 1777985811 | 12.22° C | 89% | 1012.2 hPa | 0 mm | 0.45 m/s, 2° | 86 W/m² | - |
| 1777985751 | 12.22° C | 89% | 1012.2 hPa | 0 mm | 0.45 m/s, 2° | 84 W/m² | - |
| 1777985691 | 12.22° C | 88% | 1012.1 hPa | 0.25 mm | 0.45 m/s, 1° | 83 W/m² | - |
| 1777985648 | 12.22° C | 88% | 1012.1 hPa | 0.25 mm | 0.45 m/s, 1° | 83 W/m² | - |
* Rain latest hour (hover to see other rain measurements)
** Current wind speed in m/s (hover to see current wind gust speed)